Location: Unspecified
(0.0000°N, 0.0000°E)
Time: 08:51:08
(UTC+00:00)

FAST 1 (USA 222) - Pass Details

Date: 31 May 2024
Orbit: 613 x 632 km, 72.0° (Epoch: 13 June)

Event Time Altitude Azimuth Distance (km) Brightness Sun altitude
Rises 20:12:36 0° 316° (NW) 2,884 ? -30.9°
Reaches altitude 10° 20:15:32 10° 295° (WNW) 1,986 ? -31.6°
Maximum altitude 20:18:23 17° 255° (WSW) 1,597 ? -32.2°
Enters shadow 20:19:14 16° 241° (WSW) 1,638 ? -32.4°
